Regional Weather Roundup
Issued by NWS State College, PA

Home | Current Version | Previous Version | Graphics & Text | Print | Product List | Glossary On
Versions: 1 2 3 4 5 6 7 8 9 10 11 12 13 14 15 16 17 18 19 20 21 22 23 24 25 26 27 28 29 30 31 32 33 34 35 36 37 38 39 40 41 42 43 44 45 46 47 48 49 50
000
ASUS41 KCTP 202110
RWRCTP

REGIONAL WEATHER ROUNDUP
NATIONAL WEATHER SERVICE STATE COLLEGE PA
500 PM EDT MON OCT 20 2014

Note: "fair" indicates few or no clouds below 12,000 feet with no
significant weather and/or obstructions to visibility.

* = STATION THAT DOES NOT REPORT PRECIPITATION /E.G. RAIN...SNOW...ETC/
    THUNDER OR FOG.

PAZ002>004-007>009-013>016-020>023-029>032-202200-
WESTERN PENNSYLVANIA

CITY           SKY/WX    TMP DP  RH WIND       PRES   REMARKS
ERIE           LGT RAIN  55  45  68 S17       29.81S
MEADVILLE      CLOUDY    52  43  71 S9        29.84F
FRANKLIN*      CLOUDY    52  39  62 S15       29.87F
NEW CASTLE       N/A     56  43  61 CALM      29.88S
BEAVER COUNTY  CLOUDY    55  43  62 S7        29.87F
BUTLER*        CLOUDY    55  39  54 S7        29.89F
PITTSBURGH INT CLOUDY    57  41  55 SW9G17    29.88S
PITTSBURGH     CLOUDY    56  39  53 S8        29.88F
INDIANA*       PTSUNNY   55  39  54 SW15      29.94S
LATROBE        CLOUDY    55  43  62 SW9       29.92S
WASHINGTON CO* PTSUNNY   55  41  58 SW7       29.91S
$$

PAZ004>006-010>012-017>019-024>028-033>037-041-042-045-046-049>053-202200-
CENTRAL PENNSYLVANIA

CITY           SKY/WX    TMP DP  RH WIND       PRES   REMARKS
BRADFORD       CLOUDY    52  39  61 SW3       29.86F
DUBOIS         CLOUDY    53  40  61 SW8       29.88S
CLEARFIELD     CLOUDY    55  38  52 S7        29.90S
JOHNSTOWN      CLOUDY    51  34  52 SW10      29.91S
ALTOONA        CLOUDY    51  41  68 S6        29.92F
STATE COLLEGE  PTSUNNY   55  37  50 S8        29.90F
WILLIAMSPORT   CLOUDY    59  33  37 VRB3      29.90F
SELINSGROVE    PTSUNNY   59  37  44 S5        29.92S
FT INDIANTOWN  PTSUNNY   61  44  54 S8        29.94S
CAPITAL CITY   CLOUDY    61  39  44 SW5       29.95R
HARRISBURG     CLOUDY    61  41  47 SW8       29.93S
YORK           CLOUDY    62  41  46 W6        29.95S
$$

PAZ038>040-043-044-047-048-054-055-060>062-067>071-202200-
EASTERN PENNSYLVANIA

CITY           SKY/WX    TMP DP  RH WIND       PRES   REMARKS
SCRANTON       CLOUDY    57  35  43 S8        29.93S
MOUNT POCONO   CLOUDY    51  36  56 S10       29.94F
ALLENTOWN      PTSUNNY   59  38  45 S13       29.96F
QUAKERTOWN*    PTCLDY    59  39  47 S8        29.98S
READING        CLOUDY    59  41  51 S10G17    29.95S
LANCASTER      CLOUDY    58  43  57 S9        29.96S
COATESVILLE    CLOUDY    57  41  54 S7        29.96F
POTTSTOWN      PTSUNNY   59  39  47 VRB5      29.98F
BLUE BELL      MOSUNNY   59  39  47 CALM      29.96F
DOYLESTOWN     MOSUNNY   57  37  47 S6G16     29.97F
WILLOW GROVE   NOT AVBL
NORTH PHILA    PTSUNNY   62  36  37 S6        29.99F
PHILADELPHIA   PTSUNNY   62  40  44 S6        29.98F
$$


USA.gov is the U.S. government's official web portal to all federal, state and local government web resources and services.